www.pogodaiklimat.ru

Погода и климат >> Архив погоды >> Россия >> Камчатский край >> Петропавловский Маяк


ПОГОДА в Петропавловском Маяке

  • Прогноз погоды в Петропавловском Маяке
  • Монитор погоды в Петропавловском Маяке

АРХИВ ПОГОДЫ в Петропавловском Маяке

Время (UTC), дата Ветер
(напр.,м/с)
 
Видим.   Явления Облачность Т
(С)
Тd
(С)
f
(%)
Тe
(С)
Тes
(С)
Комфортность P
(гПа)
Po
(гПа)
Тmin
(С)
Tmax
(С)
R
(мм)
R24
(мм)
S
(см)
12 13.05 Ю 4 20 км 8/0
[Cs]
+2.2 +1.3 94 -3 -3 1015.0 1000.0
15 13.05 В 3 20 км 10/3 200 м
[St As trans]
+1.2 +0.8 97 -3 -3 1013.7 998.7
18 13.05 СВ 1 10 км 10/10 300 м
[St]
+0.7 +0.6 99 -1 -1 1012.3 997.3
21 13.05 СЗ 3 200 м туман ?/? +1.7 +1.6 99 -3 -3 1011.5 996.5 +0.4 0
00 14.05 Ю 4 2000 м дымка {туман} 10/10 100 м
[St]
+2.3 +1.7 96 -3 -3 1009.4 994.5
03 14.05 ЮВ 4 2000 м дымка 10/10 100 м
[St]
+2.9 +2.2 95 -2 -2 1008.1 993.3
06 14.05 ЮВ 2 20 км {туман} 3/1 600 м
[Sc Ci fib]
+4.5 +2.4 86 +2 +6 1005.4 990.7
09 14.05 З 6 50 км туман местами 1/0
[Ci fib]
+8.2 -0.0 56 +5 +5 1001.5 987.1 +11.1
12 14.05 СЗ 12-16
{19}
20 км ясно +5.9 -0.2 65 -0 -0 1000.0 985.5
15 14.05 СЗ 12-17
{17}
20 км ясно +5.1 -0.5 67 -2 -2 999.9 985.3
18 14.05 СЗ 10-15
{20}
50 км 3/3 1000 м
[Sc]
+4.7 -1.7 63 -1 -1 1000.0 985.4
21 14.05 СЗ 7-12
{16}
50 км 9/8 300 м
[St Ac As]
+6.7 -0.4 60 +2 +2 1001.2 986.7 +4.6 0
00 15.05 В 4
{14}
50 км 9/8 600 м
[Sc Ac As]
+5.6 +0.2 68 +2 +3 1003.7 989.1
03 15.05 В 8-13
{14}
50 км 9/3 600 м
[Sc Ac As]
+4.6 +0.5 75 -1 -1 1006.1 991.4
06 15.05 В 6
{13}
20 км осадки на расстоянии 9/6 300 м
[Cb calv Ac As]
+4.0 +0.8 80 -1 -1 1009.1 994.3
09 15.05 Ю 3 50 км 8/5 1000 м
[Sc Ac As]
+3.9 +0.9 81 0 0 1012.1 997.3 +8.1
12 15.05 Ю 2 20 км 10/5 600 м
[Sc Ac und]
+4.4 +1.3 80 +2 +2 1014.8 1000.0
15 15.05 Ю 2 20 км 10/5 600 м
[Sc Ac und]
+3.3 +1.8 90 0 0 1016.2 1001.3
18 15.05 СЗ 1 50 км 10/0
[Ac und]
+3.8 +0.8 81 +2 +2 1017.6 1002.7
21 15.05 СЗ 1 50 км 9/0
[Ac As Ci fib]
+5.3 +2.8 84 +4 +8 1018.1 1003.3 +2.9 0
00 16.05 Ю 5 50 км 5/3 200 м
[St Ac trans Ci fib]
+4.2 +2.4 88 -1 +4 1019.5 1004.6
03 16.05 ЮВ 4 50 км 4/1 600 м
[Sc diur, vesp Ac trans Ci fib]
+4.6 +2.5 86 0 +6 1021.6 1006.7
06 16.05 ЮВ 5 50 км 9/3 1000 м
[Sc diur, vesp Ac As]
+3.6 +2.3 91 -2 -1 1023.0 1008.0
09 16.05 ЮВ 5 50 км 9/3 1000 м
[Sc diur, vesp Ac As]
+3.0 +2.0 93 -2 -2 1023.0 1008.0 +5.9
12 16.05 Ю 3 20 км 8/0
[Ac As]
+3.1 +1.9 92 -1 -1 1024.3 1009.3
15 16.05 ЮВ 3 20 км 3/0
[Ac As]
+2.7 +1.5 92 -2 -2 1025.8 1010.7
18 16.05 СЗ 1 50 км 9/9 300 м
[St]
+2.7 +1.8 94 +1 +1 1025.8 1010.7
21 16.05 СЗ 2 50 км 3/0
[Ac As]
+4.9 +1.7 80 +2 +7 1025.4 1010.5 +2.1 0
00 17.05 ЮВ 4 50 км 1/1 600 м
[Cu med, cong]
+5.5 +2.9 83 +2 +10 опасность
простуды
1025.3 1010.4
03 17.05 ЮВ 6 50 км 3/3 100 м
[St]
+4.8 +3.6 92 -1 +4 1027.0 1012.0
06 17.05 ЮВ 7 50 км туман местами 3/0
[Ci fib]
+4.7 +2.7 87 -1 0 1025.7 1010.7
09 17.05 В 3 200 м туман ?/? +2.0 +1.7 98 -3 -3 1027.1 1012.0 +6.8 1
12 17.05 Ю 1 200 м туман ?/? +1.7 +1.6 99 -0 1025.8 1010.7
15 17.05 СЗ 7-10
{10}
200 м туман ?/? +1.8 +1.7 99 -5 -5 1024.7 1009.5
18 17.05 СЗ 7
{11}
50 км в посл. час туман 3/0
[Ci fib]
+1.6 +1.6 100 -5 -5 1024.0 1008.9
21 17.05 СЗ 7
{10}
50 км туман местами 1/0
[Ci fib]
+5.4 +4.6 95 -0 +1 1023.2 1008.3 +1.3 0
00 18.05 СЗ 3 50 км ясно +12.8 +1.5 46 +12 +24 опасность
простуды
1022.5 1008.0
03 18.05 СЗ 3 50 км ясно +14.9 -0.0 36 +14 +26 опасность
простуды
1022.4 1008.0
06 18.05 СЗ 9-14
{14}
50 км 3/0
[Ci sp]
+13.8 -2.4 32 +11 +12 1019.6 1005.1
09 18.05 СЗ 8-12
{14}
50 км 1/0
[Ci sp]
+11.6 -1.9 39 +9 +9 1021.3 1006.7 +16.0
12 18.05 СЗ 9-13
{13}
20 км 1/0
[Ci sp]
+8.5 -0.9 52 +4 +4 1019.9 1005.2
15 18.05 СЗ 10-13
{14}
20 км 3/0
[Ci sp]
+7.8 -1.7 51 +3 +3 1018.5 1003.8
18 18.05 СЗ 7-10
{13}
50 км 10/0
[Ac As Cs]
+5.7 +0.4 69 +1 +1 1018.2 1003.4
21 18.05 СЗ 6
{11}
50 км 10/0
[Ac As]
+7.9 0.0 57 +4 +5 1017.8 1003.1 +5.2 0
00 19.05 СЗ 3 50 км слаб. ливневой дождь 10/8 300 м
[Cb cap Ac und]
+6.2 +5.3 94 +3 +4 1016.3 1001.5
03 19.05 ЮВ 3 50 км {ливн. осадки} 9/1 1000 м
[Sc Ac As Ci fib]
+5.5 +4.8 95 +2 +3 1014.8 1000.0
06 19.05 В 5 200 м туман {ливн. осадки} ?/? +3.9 +3.8 99 -1 -1 1010.8 996.0
09 19.05 С 2
{11}
500 м туман ?/? +3.2 +3.1 99 -0 1009.5 994.7 +8.2 3
12 19.05 СЗ 5 20 км {туман} 8/6 600 м
[Sc Ci fib]
+4.0 +3.9 99 -1 -1 1007.8 993.1
15 19.05 СЗ 5 20 км 3/0
[Ac As Ci fib]
+6.5 +5.1 91 +2 +2 1007.9 993.3
18 19.05 СЗ 5 50 км 4 балла +5.9 +3.9 87 +1 +1 1006.6 992.0
21 19.05 СЗ 7-10
{11}
50 км 4/3 1000 м
[Sc Ac As Ci sp]
+12.1 +4.4 59 +9 +10 1006.0 991.7 +2.9 0
00 20.05 СЗ 13-19
{19}
50 км 3/1 1000 м
[Sc Ac As Ci sp]
+13.0 +4.8 57 +9 +9 1003.2 989.0
03 20.05 СЗ 19-27
{27}
50 км 1/0
[Ci sp]
+12.0 +3.0 54 +7 +7 1002.5 988.3
06 20.05 СЗ 19-27
{30}
50 км 3/0
[Ci sp]
+11.9 +1.8 50 +7 +7 1004.0 989.7
09 20.05 СЗ 14 50 км 2 балла +11.4 +1.9 52 +7 +7 1007.7 993.3 +15.2

 

Местоположение метеостанции Петропавловский Маяк (Камчатский край, Россия): широта 52.88 долгота 158.70 высота над уровнем моря 120 м.

В архиве по умолчанию представлена погода в Петропавловском Маяке за последнюю неделю. Архивные данные за месяц целиком и за предыдущие месяцы, начиная с января 2011 года, Вы можете получить, выбрав интересующий диапазон дат из раскрывающегося списка и нажав кнопку "Ввод!".


*Определитесь, кто Вы:
робот инопланетянин человек

Внимание! Время в таблицах - всемирное. Для получения местного времени необходимо прибавить поправку, которая равна 12 ч.

Смотрите также архив погоды в соседних городах и на ближайших метеорологических станциях:

Погода в Петропавловск-Камчатском (Камчатский край, Россия) (7 км)
Погода в Петропавловск-Камч. 2 (Камчатский край, Россия) (26 км)
Погода в Сосновке (Камчатский край, Россия) (35 км)
Погода в Начиках (Камчатский край, Россия) (72 км)
Погода в Водопадной (Камчатский край, Россия) (127 км)
Погода в Пущино (Камчатский край, Россия) (152 км)
Погода в Семячике (Камчатский край, Россия) (159 км)
Погода в Большерецке (Камчатский край, Россия) (161 км)
Погода в Мильково (Камчатский край, Россия) (201 км)
Погода в Озерной (Камчатский край, Россия) (221 км)

Пояснения к столбцам:

Ветер - указаны скорость ветра в м/с - средняя за 10 мин, порывы в срок и между сроками (в фигурных скобках) и направление, откуда дует ветер: С - северный, СВ - северо-восточный, В - восточный, ЮВ - юго-восточный, Ю - южный, ЮЗ - юго-западный, З - западный, СЗ - северо-западный.
Видимость - горизонтальная дальность видимости в метрах или километрах. При видимости от 1 до 10 км при отсутствии осадков обычно наблюдается дымка, при ухудшении видимости до 1 км и менее - туман. В сухую погоду видимость может ухудшаться дымом, пылью или мглою.
Явления - указаны атмосферные явления, наблюдавшиеся в срок или в последний час перед сроком; фигурными скобками обозначены явления, наблюдавшиеся между сроками (за 1-3 часа до срока); квадратными скобками обозначены град или гололедные отложения с указанием их диаметра в мм.
Облачность - указаны через наклонную черту общая и нижняя облачность в баллах и высота нижней границы облаков в метрах; квадратными скобками обозначены формы облаков: Ci - перистые, Cs - перисто-слоистые, Cc - перисто-кучевые, Ac - высококучевые, As - высокослоистые, Sc - слоисто-кучевые, Ns - слоисто-дождевые, Cu - кучевые, Cb - кучево-дождевые. Подробнее классификацию облаков см. в Атласе облаков (PDF).
T - Температура воздуха - температура, измеренная на высоте 2 м над землей.
Td - Температура точки росы - температура, при понижении до которой содержащийся в воздухе водяной пар достигнет насыщения.
f - Относительная влажность воздуха - влажноcть воздуха, измеренная на высоте 2 м над землей.
Te - Эффективная температура - температура, которую ощущает одетый по сезону человек в тени. Характеристика душности погоды. При расчете учитывается влияние влажности воздуха и скорости ветра на теплоощущения человека.
Tes - Эффективная температура на солнце - температура, которую ощущает человек, с поправкой на солнечный нагрев. Характеристика знойности погоды. Зависит от высоты солнца над горизонтом, облачности и скорости ветра. Ночью, в пасмурную погоду, а также при ветре 12 м/с и более поправка равна нулю.
P - Атмосферное давление - приведенное к уровню моря атмосферное давление.
Po - Атмосферное давление - измеренное на уровне метеостанции атмосферное давление.
Tmin - Минимальная температура - минимум температуры воздуха на высоте 2 м над землей.
Tmax - Максимальная температура - максимум температуры воздуха на высоте 2 м над землей.
R - Количество осадков - Количество выпавших осадков за период времени, мм. При наведении курсора мыши на число - период времени, за который выпало указанное количество осадков.
R24 - Количество осадков - Количество выпавших осадков за 24 часа, мм.
S - Снежный покров - Высота снежного покрова, см. При наведении курсора мыши на число - состояние снежного покрова и степень покрытия местности в баллах.